Location: Unspecified
(0.0000°N, 0.0000°E)
Time: 20:16:38
(UTC+00:00)

Courier 1B Rocket - All Passes

Search period start: 14 July 2020 00:00
Search period end: 24 July 2020 00:00
Orbit: 920 x 1202 km, 28.2° (Epoch: 13 July)

Date Brightness Start Highest point End Pass type
(mag) Time Alt. Az. Time Alt. Az. Time Alt. Az.
14 Jul - 07:36:21 10° SSW 07:42:43 27° SSE 07:49:05 10° E daylight
14 Jul - 09:28:58 10° WSW 09:36:51 81° SSE 09:44:28 10° ENE daylight
14 Jul - 11:24:02 10° W 11:30:44 32° NNW 11:37:09 10° NNE daylight
14 Jul - 19:08:10 10° NNW 19:12:04 17° NNE 19:15:56 10° ENE visible
14 Jul - 20:59:35 10° NW 21:05:44 63° NNE 21:12:02 10° ESE visible
14 Jul - 22:53:34 10° W 22:59:12 34° SSW 23:05:07 10° SE night (unlit)
15 Jul - 00:52:12 10° SSW 00:53:35 11° SSW 00:54:59 10° S night (unlit)
15 Jul - 06:35:58 10° SSW 06:41:08 19° SSE 06:46:22 10° ESE daylight
15 Jul - 08:27:48 10° SW 08:35:29 57° SSE 08:43:02 10° ENE daylight
15 Jul - 10:21:56 10° WSW 10:29:22 47° NNW 10:36:33 10° NE daylight
15 Jul - 12:19:37 10° WNW 12:23:39 15° NNW 12:27:35 10° N daylight
15 Jul - 18:08:52 10° N 18:10:42 11° NNE 18:12:30 10° NE daylight
15 Jul - 19:58:55 10° NW 20:04:43 40° NNE 20:10:33 10° E visible
15 Jul - 21:52:04 10° WNW 21:58:06 52° SSW 22:04:22 10° SE visible
15 Jul - 23:48:30 10° WSW 23:52:04 15° SSW 23:55:43 10° SSE night (unlit)
16 Jul - 05:36:07 10° S 05:39:27 13° SSE 05:42:50 10° SE visible
16 Jul - 07:26:56 10° SW 07:34:04 39° SSE 07:41:14 10° E daylight
16 Jul - 09:20:12 10° WSW 09:28:01 69° NNW 09:35:40 10° NE daylight
16 Jul - 11:16:23 10° WNW 11:22:07 22° NNW 11:27:40 10° NNE daylight
16 Jul - 18:58:26 10° NNW 19:03:37 26° NNE 19:08:44 10° E visible
16 Jul - 20:50:52 10° WNW 20:57:06 81° SSW 21:03:26 10° ESE visible
16 Jul - 22:46:00 10° WSW 22:50:43 22° SSW 22:55:36 10° SSE night (unlit)
17 Jul - 06:26:19 10° SSW 06:32:36 27° SSE 06:39:00 10° E daylight
17 Jul - 08:18:50 10° WSW 08:26:40 83° SSE 08:34:29 10° ENE daylight
17 Jul - 10:13:50 10° W 10:20:39 32° NNW 10:27:17 10° NNE daylight
17 Jul - 12:14:10 10° NNW 12:15:21 10° NNW 12:16:32 10° N daylight
17 Jul - 17:58:13 10° NNW 18:02:24 18° NNE 18:06:29 10° ENE daylight
17 Jul - 19:49:52 10° NW 19:56:07 65° NNE 20:02:19 10° ESE visible
17 Jul - 21:44:02 10° W 21:49:33 32° SSW 21:55:10 10° SE visible
18 Jul - 05:26:04 10° SSW 05:31:04 19° SSE 05:36:12 10° ESE visible
18 Jul - 07:17:45 10° SW 07:25:18 58° SSE 07:32:58 10° ENE daylight
18 Jul - 09:11:47 10° W 09:19:13 47° NNW 09:26:36 10° NE daylight
18 Jul - 11:09:21 10° WNW 11:13:39 15° NNW 11:17:51 10° N daylight
18 Jul - 16:58:29 10° N 17:00:59 12° NNE 17:03:28 10° NE daylight
18 Jul - 18:49:06 10° NW 18:55:05 41° NNE 19:00:56 10° E visible
18 Jul - 20:42:27 10° WNW 20:48:29 50° SSW 20:54:33 10° SE visible
18 Jul - 22:39:13 10° SW 22:42:21 14° SSW 22:45:33 10° S night (unlit)
19 Jul - 04:26:27 10° S 04:29:27 13° SSE 04:32:31 10° SE visible
19 Jul - 06:16:57 10° SW 06:23:55 39° SSE 06:31:06 10° E daylight
19 Jul - 08:10:08 10° WSW 08:17:50 68° NNW 08:25:37 10° NE daylight
19 Jul - 10:06:13 10° WNW 10:12:02 22° NNW 10:17:46 10° NNE daylight
19 Jul - 17:48:28 10° NNW 17:53:57 28° NNE 17:59:14 10° E daylight
19 Jul - 19:41:08 10° WNW 19:47:29 79° SSW 19:53:44 10° SE visible
19 Jul - 21:36:31 10° WSW 21:41:03 21° SSW 21:45:39 10° SSE visible
20 Jul - 05:16:28 10° SSW 05:22:31 27° SSE 05:28:49 10° E visible
20 Jul - 07:08:50 10° WSW 07:16:29 85° SSE 07:24:21 10° ENE daylight
20 Jul - 09:03:44 10° W 09:10:31 32° NNW 09:17:17 10° NNE daylight
20 Jul - 11:03:36 10° NNW 11:05:21 11° NNW 11:07:05 10° N daylight
20 Jul - 16:48:04 10° NNW 16:52:41 19° NNE 16:57:07 10° ENE daylight
20 Jul - 18:40:02 10° NW 18:46:29 67° NNE 18:52:42 10° ESE visible
20 Jul - 20:34:25 10° W 20:39:54 31° SSW 20:45:22 10° SSE visible
21 Jul - 04:16:20 10° SSW 04:21:04 18° SSE 04:25:57 10° ESE visible
21 Jul - 06:07:50 10° SW 06:15:09 58° SSE 06:22:48 10° ENE daylight
21 Jul - 08:01:46 10° W 08:09:03 46° NNW 08:16:29 10° NE daylight
21 Jul - 09:59:13 10° WNW 10:03:35 16° NNW 10:07:55 10° NNE daylight
21 Jul - 15:48:00 10° N 15:51:14 14° NNE 15:54:23 10° NE daylight
21 Jul - 17:39:06 10° NW 17:45:25 44° NNE 17:51:24 10° E daylight
21 Jul - 19:32:41 10° WNW 19:38:51 49° SSW 19:44:52 10° SE visible
21 Jul - 21:29:48 10° SW 21:32:41 13° SSW 21:35:34 10° S visible
22 Jul - 03:17:00 10° S 03:19:31 12° SSE 03:22:06 10° SE visible
22 Jul - 05:07:09 10° SW 05:13:50 39° SSE 05:20:53 10° E visible
22 Jul - 07:00:12 10° WSW 07:07:40 66° NNW 07:15:27 10° NE daylight
22 Jul - 08:56:11 10° WNW 09:01:55 22° NNW 09:07:42 10° NNE daylight
22 Jul - 16:38:22 10° NNW 16:44:14 30° NNE 16:49:48 10° E daylight
22 Jul - 18:31:15 10° WNW 18:37:51 77° SSW 18:44:08 10° SE visible
22 Jul - 20:26:53 10° WSW 20:31:24 20° SSW 20:35:53 10° SSE visible
23 Jul - 04:06:45 10° SSW 04:12:31 26° SSE 04:18:34 10° E visible
23 Jul - 05:58:59 10° WSW 06:06:21 86° SSE 06:14:09 10° ENE daylight
23 Jul - 07:53:48 10° W 08:00:23 31° NNW 08:07:07 10° NNE daylight
23 Jul - 09:53:28 10° NNW 09:55:18 11° NNW 09:57:08 10° N daylight
23 Jul - 15:37:47 10° NNW 15:42:54 21° NNE 15:47:46 10° ENE daylight
23 Jul - 17:30:01 10° NW 17:36:48 70° NNE 17:43:10 10° ESE daylight
23 Jul - 19:24:38 10° W 19:30:15 31° SSW 19:35:43 10° SSE visible
